Home   Weather   Saskatoon   Past weeks

Flag for Canada Past Weather in Saskatoon, Saskatchewan, Canada — Yesterday and Last 2 Weeks

Now
46 °F

Passing clouds.


Feels Like: 42 °F
Forecast: 44 / 64 °F
Wind: 9 mph from Northeast

Location: Saskatoon Weather Station

Current Time: Sep 29, 2016 at 5:57:13 AM

Latest Report: Sep 29, 2016 at 5:00 AM


Visibility: 15 mi

Pressure: 30.27 "Hg

Humidity: 100%

Dew Point: 46 °F

Location of SaskatoonLocation

Past Weather in Saskatoon — Graph

°F

Saskatoon Temperature Yesterday

Maximum temperature yesterday: 59 °F (at 1:00 PM)
Minimum temperature yesterday: 34 °F (at 7:00 AM)
Average temperature yesterday: 47 °F

High & Low Weather Summary for the Past Weeks

 TemperatureHumidityPressure
High75 °F (Sep 16, 3:00 PM)100% (Sep 15, 4:00 AM)30.45 "Hg (Sep 15, 4:00 AM)
Low32 °F (Sep 20, 4:00 AM)23% (Sep 14, 3:00 PM)29.45 "Hg (Sep 18, 5:00 AM)
Average52 °F72%30.04 "Hg
* Reported Sep 14 4:00 AM — Sep 29 4:00 AM, Saskatoon, Weather by CustomWeather, © 2016

Note: Actual official high and low records may vary slightly from our data, if they occured in-between our weather recording intervals... More about our weather records

Advertising

Saskatoon Weather History for the Previous 24 Hours

Scroll right to see more
 ConditionsComfort  
Time TempWeatherWind HumidityBarometerVisibility
4:00 AM
Thu, Sep 29
45 °FPassing clouds.7 mph100%30.28 "Hg15 mi
3:00 AM46 °FPartly cloudy.7 mph100%30.28 "Hg15 mi
2:54 AM46 °FPartly cloudy.7 mph100%30.28 "Hg15 mi
2:00 AM48 °FLight rain. Mostly cloudy.10 mph94%30.29 "Hg15 mi
1:00 AM48 °FOvercast.10 mph94%30.31 "Hg15 mi
12:00 AM48 °FLight rain. Overcast.8 mph87%30.34 "Hg15 mi
11:00 PM
Wed, Sep 28
48 °FLight rain. Overcast.10 mph87%30.36 "Hg15 mi
10:00 PM48 °FOvercast.10 mph94%30.37 "Hg15 mi
9:00 PM48 °FSprinkles. Overcast.8 mph87%30.41 "Hg15 mi
8:00 PM48 °FSprinkles. Overcast.10 mph87%30.41 "Hg15 mi
7:00 PM48 °FSprinkles. Overcast.8 mph87%30.42 "Hg15 mi
6:00 PM52 °FSprinkles. Partly sunny.3 mph62%30.45 "Hg15 mi
5:00 PM55 °FOvercast.2 mph51%30.44 "Hg15 mi
4:00 PM59 °FOvercast.3 mph39%30.42 "Hg15 mi
3:00 PM59 °FMostly cloudy.7 mph39%30.41 "Hg15 mi
2:00 PM59 °FPartly sunny.7 mph39%30.42 "Hg15 mi
1:00 PM59 °FPartly sunny.7 mph42%30.43 "Hg15 mi
12:00 PM57 °FPartly sunny.No wind51%30.44 "Hg15 mi
11:00 AM57 °FScattered clouds.3 mph55%30.44 "Hg15 mi
10:00 AM50 °FScattered clouds.5 mph76%30.45 "Hg15 mi
9:00 AM41 °FPassing clouds.3 mph100%30.45 "Hg15 mi
8:00 AM36 °FPassing clouds.2 mph100%30.43 "Hg15 mi
7:00 AM34 °FClear.2 mph100%30.41 "Hg15 mi
6:00 AM36 °FClear.2 mph100%30.39 "Hg15 mi
5:00 AM36 °FClear.7 mph100%30.36 "Hg15 mi
Weather by CustomWeather, © 2016

See weather overviewHow to use our weather pages